Home > Weather > Belo Horizonte > Past weeks

Flag for Brazil Past Weather in Belo Horizonte, Minas Gerais, Brazil — Yesterday and Last 2 Weeks

Now
70 °F

Clear.


Feels Like: 70 °F
Forecast: 62 / 83 °F
Wind: 7 mph from East

Location: Belo Horizonte Airport

Current Time: Aug 29, 2016 at 10:29:51 PM

Latest Report: Aug 29, 2016 at 10:00 PM


Visibility: 10 mi

Pressure: 30.18 "Hg (27.31 "Hg at 860m altitude)

Humidity: 57%

Dew Point: 54 °F

Location of Belo HorizonteLocation

Past Weather in Belo Horizonte — Graph

°F

Belo Horizonte Temperature Yesterday

Maximum temperature yesterday: 81 °F (at 2:00 PM)
Minimum temperature yesterday: 59 °F (at 3:00 AM)
Average temperature yesterday: 69 °F

High & Low Weather Summary for the Past Weeks

 TemperatureHumidityPressure
High88 °F (Aug 18, 2:00 PM)100% (Aug 17, 8:00 AM)30.60 "Hg (Aug 17, 8:00 AM)
Low54 °F (Aug 26, 7:00 AM)17% (Aug 18, 2:00 PM)29.95 "Hg (Aug 15, 3:00 PM)
Average69 °F58%30.14 "Hg
* Reported Aug 14 9:00 PM — Aug 29 9:00 PM, Belo Horizonte, Weather by CustomWeather, © 2016

Note: Actual official high and low records may vary slightly from our data, if they occured in-between our weather recording intervals... More about our weather records

Advertising

Belo Horizonte Weather History for the Previous 24 Hours

Scroll right to see more
 ConditionsComfort  
Time TempWeatherWind HumidityBarometerVisibility
9:00 PM
Mon, Aug 29
72 °FClear.5 mph47%30.15 "Hg10 mi
8:00 PM75 °FClear.7 mph36%30.15 "Hg10 mi
7:00 PM77 °FClear.6 mph28%30.12 "Hg10 mi
6:00 PM79 °FClear.9 mph24%30.09 "Hg10 mi
5:00 PM81 °FSunny.12 mph21%30.07 "Hg10 mi
4:00 PM84 °FSunny.10 mph19%30.07 "Hg10 mi
3:00 PM84 °FSunny.12 mph20%30.09 "Hg10 mi
2:00 PM84 °FSunny.10 mph19%30.09 "Hg10 mi
1:00 PM82 °FSunny.12 mph25%30.12 "Hg10 mi
12:00 PM81 °FSunny.6 mph32%30.15 "Hg10 mi
11:00 AM77 °FSunny.9 mph34%30.18 "Hg10 mi
10:00 AM75 °FSunny.10 mph41%30.21 "Hg10 mi
9:00 AM70 °FSunny.3 mph53%30.21 "Hg10 mi
8:00 AM63 °FSunny.5 mph68%30.21 "Hg10 mi
7:00 AM61 °FSunny.3 mph68%30.18 "Hg10 mi
6:00 AM61 °FClear.6 mph68%30.15 "Hg10 mi
5:00 AM61 °FClear.2 mph63%30.15 "Hg10 mi
4:00 AM61 °FClear.6 mph68%30.15 "Hg10 mi
3:00 AM63 °FClear.2 mph59%30.12 "Hg10 mi
2:00 AM63 °FClear.2 mph64%30.12 "Hg10 mi
1:00 AM63 °FClear.2 mph59%30.15 "Hg10 mi
12:00 AM64 °FClear.5 mph56%30.15 "Hg10 mi
11:00 PM
Sun, Aug 28
64 °FClear.3 mph56%30.15 "Hg10 mi
10:00 PM66 °FClear.3 mph52%30.15 "Hg10 mi
Weather by CustomWeather, © 2016

See weather overviewHow to use our weather pages